Location: Unspecified
(0.0000°N, 0.0000°E)
Time: 16:38:05
(UTC+00:00)

Envisat - Pass Details

Date: 09 December 2018
Orbit: 764 x 766 km, 98.2° (Epoch: 13 December)

Event Time Altitude Azimuth Distance (km) Brightness Sun altitude
Rises 18:47:02 0° 153° (SSE) 3,230 6.2 -12.6°
Reaches altitude 10° 18:49:29 10° 145° (SE) 2,302 5.4 -13.1°
Maximum altitude 18:54:10 38° 78° (ENE) 1,156 3.4 -14.2°
Drops below altitude 10° 18:58:49 10° 11° (N) 2,291 5.1 -15.3°
Sets 19:01:15 0° 3° (N) 3,214 6.0 -15.8°
